Theta_e
293 294 295 295 294 294 294 294 294 294 295 292 287 287 288 289 284 285 296 299 297 299 301 303 303 304 303 303 304 304 305 305 305 304 304 304 304 304 305 306 307 307 308 308 309 309 309 308 308 309 310 310 309 308 308 308 308 308 309 310 311 311 311 310 310 310 310 310 309 308 308 307 306 306 307 307 306 306 305 304 305 304 305 306 306 305 305
294 294 295 295 293 292 293 293 293 294 293 293 290 289 291 290 287 295 298 298 298 302 302 303 304 305 305 304 305 305 304 304 304 304 304 303 303 304 305 305 306 307 308 309 309 309 309 308 308 310 310 309 308 307 307 307 307 307 309 310 310 310 310 309 310 309 309 308 308 307 306 305 305 305 305 305 304 303 303 302 302 303 302 304 304 303 303
290 293 294 293 292 291 288 291 292 293 293 293 294 291 293 295 296 298 298 297 297 301 305 304 305 305 305 304 303 303 304 303 303 303 303 303 303 304 305 306 306 307 308 308 308 308 307 308 309 308 308 307 307 307 306 306 306 307 309 310 310 309 309 309 309 309 308 308 307 306 306 305 304 304 303 303 302 301 301 301 300 301 300 301 301 302 302
284 292 292 290 289 289 287 289 291 291 292 291 292 289 294 294 294 296 297 294 294 300 304 304 304 303 303 302 302 303 303 303 303 302 302 303 303 304 305 306 307 307 307 307 307 306 307 308 308 308 307 307 306 306 305 306 306 307 309 309 309 309 309 308 308 307 307 307 306 306 305 304 303 303 302 301 300 300 300 299 300 300 299 299 300 300 301
282 289 291 288 284 284 282 281 287 291 292 293 294 296 297 297 300 295 291 295 300 302 303 301 301 302 302 302 302 302 303 303 303 302 303 304 305 305 305 304 303 303 304 305 307 306 307 307 307 307 307 306 305 305 305 305 307 307 308 308 308 307 307 307 306 306 306 305 305 304 304 303 302 301 300 300 299 299 298 299 299 298 299 299 299 299 300
281 286 288 286 280 277 279 289 293 294 292 293 293 293 295 296 296 295 298 301 302 302 302 300 300 301 301 302 304 305 304 302 303 303 304 305 305 303 302 302 302 302 302 303 304 305 306 307 307 307 307 306 306 306 306 306 306 306 306 306 306 305 305 305 305 305 305 305 304 304 304 303 301 300 299 298 298 298 298 298 297 297 298 298 298 298 299
283 281 285 281 276 275 287 291 293 296 297 297 296 297 297 297 296 298 299 300 301 302 303 302 302 303 303 304 304 304 304 304 303 303 304 304 302 301 301 301 301 301 302 303 304 306 306 306 307 307 306 306 306 305 305 306 306 305 305 304 304 303 303 303 303 303 303 303 303 303 303 302 301 299 298 297 297 297 296 296 296 296 296 296 297 298 298
280 279 278 275 276 286 290 293 296 299 298 296 295 292 294 298 297 300 299 301 302 302 302 303 303 303 303 303 303 304 304 305 304 304 304 303 302 301 300 300 301 302 302 303 304 305 307 306 306 306 305 305 305 304 305 304 304 303 302 301 301 301 300 300 300 301 301 300 300 301 301 300 299 298 298 296 295 296 296 295 296 296 296 296 296 296 297
280 278 275 278 284 288 290 292 294 293 291 291 289 287 289 299 301 301 301 301 302 302 302 302 302 303 302 299 299 303 304 304 305 304 303 303 301 301 302 302 301 302 303 304 304 305 305 306 305 305 305 305 304 303 303 302 302 301 301 300 300 299 299 298 298 298 299 299 298 298 298 297 296 296 296 295 295 295 294 294 294 294 295 295 296 296 296
281 281 277 277 276 277 281 288 293 297 297 296 297 293 289 297 301 303 302 300 301 301 301 301 301 302 298 294 295 300 302 303 302 302 302 302 302 301 300 301 301 301 301 302 304 304 304 304 304 305 304 304 303 302 301 301 300 300 299 298 298 298 297 297 297 296 297 296 296 296 295 295 295 295 295 295 295 295 294 293 293 294 295 295 295 296 296
282 280 278 276 275 277 282 290 295 299 299 299 296 289 287 297 303 304 303 301 301 300 300 300 301 298 293 292 296 300 301 301 301 299 299 300 300 300 301 301 300 300 301 302 303 304 303 303 303 304 303 302 300 299 299 298 298 297 297 297 297 296 296 296 296 296 296 296 296 295 295 294 295 294 295 295 295 294 294 294 294 294 295 294 294 294 295
278 278 276 279 277 281 289 291 295 299 298 298 291 283 284 294 302 304 303 301 300 300 301 301 300 297 291 293 296 300 300 300 299 298 298 298 298 298 299 300 300 300 301 302 302 302 302 302 302 302 301 300 299 298 297 297 296 296 296 296 296 296 296 295 295 295 295 295 295 294 294 294 294 294 295 294 294 294 294 294 294 293 294 293 292 292 293
280 281 276 273 277 284 292 295 297 297 298 293 284 281 284 298 302 304 303 301 302 302 301 301 296 293 298 300 300 299 299 298 297 298 298 298 298 298 298 298 299 299 299 300 301 301 302 302 302 301 300 299 297 297 296 296 296 296 296 296 296 295 294 294 293 293 293 293 293 293 293 294 294 295 294 293 293 293 293 293 293 293 292 292 292 291 291
281 276 281 277 276 283 292 294 298 299 294 284 283 288 294 302 301 303 303 301 302 302 300 296 295 298 300 299 298 297 297 297 296 297 297 297 297 297 297 298 298 298 299 299 300 300 301 302 302 301 300 298 297 296 296 295 295 296 296 296 295 294 293 292 292 292 292 293 294 294 294 294 294 294 294 294 294 292 292 292 292 291 291 291 290 290 290
281 276 277 279 279 286 296 296 296 298 286 284 290 296 300 303 302 302 302 302 300 298 296 297 297 297 297 297 296 296 296 296 295 295 296 296 295 295 296 296 298 299 298 298 298 298 299 300 300 300 299 297 296 296 295 294 295 295 295 295 294 294 293 293 293 292 292 292 293 293 293 293 292 292 293 293 293 293 292 292 291 291 290 290 289 289 289
282 278 279 279 284 289 295 294 286 291 292 294 298 300 298 300 302 301 301 298 298 299 298 297 297 297 296 295 295 295 295 295 295 296 296 296 295 295 296 296 297 297 297 297 296 297 297 298 297 297 297 296 295 294 293 294 295 295 294 294 294 294 293 293 292 293 293 292 292 291 292 291 291 291 291 292 292 292 291 291 290 290 290 289 289 288 288
283 282 282 287 288 292 295 295 295 296 298 300 299 299 301 300 300 302 299 297 299 300 299 298 297 296 295 294 295 295 295 295 295 295 296 296 296 296 296 296 296 297 296 295 296 295 296 296 296 296 296 295 294 293 293 294 294 294 294 294 294 293 293 292 292 292 292 291 291 291 290 290 290 290 290 290 291 290 290 290 289 289 288 289 288 288 288
293 294 292 294 293 294 296 298 298 298 299 300 300 299 297 297 299 300 298 298 299 300 299 297 296 296 294 294 295 295 295 295 296 296 297 297 297 296 296 295 296 296 296 295 295 294 294 295 295 295 295 295 293 293 293 294 293 293 293 293 293 293 292 292 292 292 291 291 291 290 290 290 290 289 289 289 289 289 289 289 288 288 288 288 288 288 287
290 287 295 293 292 294 296 297 298 298 298 298 298 297 297 297 298 298 299 300 300 299 299 298 296 294 295 295 295 295 295 295 296 296 296 297 296 296 295 295 296 296 296 295 295 295 294 294 295 295 294 294 294 294 294 293 293 293 293 293 293 292 292 292 291 291 290 290 289 289 289 289 289 289 288 287 288 288 287 288 288 288 288 288 288 287 287
286 288 294 296 296 296 297 297 296 296 296 297 297 297 298 298 299 299 300 301 300 300 298 297 295 294 295 295 294 295 295 295 296 297 297 296 296 296 296 296 296 296 295 294 294 294 294 294 294 295 295 295 295 295 294 294 293 293 293 292 292 291 291 291 291 290 290 288 289 288 287 287 287 288 288 287 286 286 285 286 287 287 287 287 287 287 286
292 296 297 297 297 296 296 296 296 296 296 296 296 297 298 298 298 299 300 300 299 298 297 297 296 295 296 295 295 295 295 296 296 296 297 296 296 295 295 295 295 295 294 294 294 294 293 294 294 294 294 294 295 295 295 295 294 293 292 292 292 291 291 291 290 290 289 289 288 287 287 286 286 285 285 287 287 286 284 284 285 287 288 287 286 285 285
289 289 292 296 290 288 293 294 295 295 296 296 296 296 297 297 297 298 298 298 298 298 297 296 296 294 294 295 295 294 296 296 297 297 297 297 296 295 295 295 295 295 294 294 293 293 293 293 294 293 293 293 294 294 294 294 294 293 293 292 291 291 291 290 290 289 289 288 288 288 287 287 287 288 287 289 287 287 286 289 289 289 289 286 287 286 288
288 293 297 297 296 295 295 295 295 296 296 296 295 296 297 297 298 298 297 296 296 296 296 297 295 294 293 293 295 295 296 296 297 298 297 296 295 295 295 295 294 294 294 294 293 293 293 294 294 294 294 294 294 294 294 294 294 293 293 292 291 290 290 290 289 289 289 288 288 287 288 287 287 287 287 288 289 289 289 290 289 289 289 289 289 289 288
294 297 297 297 295 292 294 296 296 296 296 296 295 297 298 298 298 298 297 297 295 294 294 295 295 294 294 295 296 295 296 297 297 297 297 297 296 296 296 295 294 294 294 293 293 293 293 294 294 294 293 293 293 293 294 293 293 292 292 291 290 289 290 290 290 289 288 288 288 287 287 287 287 287 287 287 288 290 290 289 290 289 289 289 289 289 290
294 298 298 297 296 296 296 297 296 296 297 297 296 296 297 297 297 298 296 296 296 295 294 293 294 295 295 296 296 296 296 296 297 297 296 295 295 296 295 295 294 294 293 293 293 293 293 293 293 293 292 292 292 293 293 294 294 293 292 291 290 289 290 289 289 289 289 289 289 289 288 287 287 287 286 285 286 285 289 289 290 290 290 290 290 290 290
298 298 298 298 297 296 296 296 296 296 297 298 297 297 298 298 298 297 296 296 296 296 295 295 295 296 297 296 296 296 296 295 295 295 296 295 295 296 296 295 295 295 294 293 293 293 292 292 293 292 292 292 292 293 293 293 293 292 292 291 291 290 290 290 290 289 289 289 289 288 288 287 287 286 286 287 285 285 285 285 288 290 290 290 290 290 290
298 299 297 295 294 293 294 294 293 297 297 297 297 297 297 297 297 297 297 297 296 296 296 296 296 296 296 296 296 296 295 294 295 296 296 296 296 296 295 296 295 294 293 293 293 292 292 292 292 292 292 292 292 293 293 293 292 292 291 291 291 288 288 288 289 290 289 288 288 287 287 288 286 286 286 285 285 285 285 286 286 286 284 287 289 290 288
296 296 297 293 292 293 294 296 297 297 297 297 297 296 297 297 296 295 295 294 295 295 295 295 295 295 294 295 295 293 294 295 295 295 296 296 296 297 296 295 295 294 294 293 293 292 292 292 291 291 291 291 293 293 293 292 292 291 291 291 291 289 290 289 289 288 288 289 288 288 288 287 287 286 286 285 285 285 284 285 285 285 284 285 285 289 289
295 296 296 296 296 296 297 297 297 297 296 297 297 297 296 295 295 294 293 293 293 293 293 294 294 294 294 294 295 294 294 294 294 295 295 296 296 296 296 295 295 294 293 292 292 292 292 292 291 291 290 291 292 292 293 292 292 291 291 291 289 289 289 288 288 288 288 288 288 288 286 286 287 287 286 286 285 284 284 285 284 284 283 284 286 288 288
296 297 296 295 296 296 296 295 295 295 296 296 295 295 295 294 293 292 293 292 293 293 293 293 294 293 294 294 294 295 294 294 295 295 295 295 296 296 295 295 294 293 292 292 291 291 291 291 291 290 290 290 292 292 292 291 291 290 290 290 289 288 289 288 288 289 288 287 286 285 285 287 287 287 286 286 286 285 284 284 283 284 285 283 286 284 284
296 296 296 295 296 296 295 294 295 295 295 295 295 294 294 294 293 292 291 292 292 292 292 293 293 293 294 294 295 295 296 295 295 295 295 295 295 295 295 294 292 290 291 291 291 291 290 290 290 290 290 291 292 292 292 291 290 289 289 289 288 287 286 287 287 288 286 286 286 286 285 285 286 286 285 284 285 284 284 283 283 282 282 282 283 283 285
295 295 295 295 295 294 294 294 294 294 294 294 294 293 293 293 292 291 291 291 291 291 291 292 292 293 293 294 295 295 295 295 295 294 294 294 294 295 294 294 293 291 292 291 290 290 289 289 290 290 289 291 291 291 291 291 290 290 289 287 288 287 286 286 287 287 287 285 286 286 284 285 284 284 283 283 285 284 282 283 283 283 283 283 284 285 285
294 292 292 293 293 294 293 294 294 293 293 293 294 294 294 293 293 292 291 291 290 291 291 292 293 294 294 295 295 295 294 294 294 294 293 293 293 293 293 293 293 293 292 291 290 290 290 290 290 290 290 291 291 291 291 291 290 290 289 288 287 287 287 286 287 287 286 286 285 285 285 285 284 285 285 284 284 283 283 283 281 282 283 283 284 285 284
294 292 293 294 294 293 293 293 294 293 293 294 294 293 292 292 292 291 290 290 291 291 292 292 293 294 295 294 294 294 294 293 291 292 293 293 292 292 292 292 292 291 291 290 291 291 290 291 291 291 291 291 291 291 291 291 290 289 289 288 288 287 288 286 288 287 286 286 286 286 285 286 286 285 284 284 285 284 285 284 283 282 282 282 281 281 284
295 295 295 296 296 296 296 294 294 294 293 292 291 292 292 293 292 292 291 291 291 292 293 294 294 295 294 294 294 293 292 290 290 291 292 291 290 289 290 291 291 290 290 290 290 291 291 291 291 291 292 291 292 290 291 290 290 289 288 289 288 288 287 287 287 287 287 287 285 286 285 285 283 285 285 284 284 284 284 284 283 283 282 283 283 283 283
296 296 295 295 295 295 294 294 294 294 294 293 292 293 293 294 293 292 291 292 293 294 294 294 294 293 292 292 290 289 289 289 289 289 289 288 288 288 290 291 291 290 290 289 289 291 292 293 289 289 292 291 290 290 289 289 289 288 288 288 288 288 287 287 287 287 286 286 285 285 285 285 284 284 284 285 284 283 283 283 284 284 283 284 283 282 283
297 296 296 295 295 295 294 294 295 295 294 293 293 293 294 294 293 293 293 294 294 294 292 291 291 290 289 288 288 288 288 288 289 288 288 288 288 290 290 290 290 290 290 289 289 289 291 291 288 288 290 289 289 288 287 286 289 288 288 289 289 289 287 287 288 287 287 285 286 285 284 284 284 284 284 283 284 283 282 284 283 283 282 282 282 282 283
296 296 295 295 295 295 295 295 295 295 295 294 293 293 293 294 294 293 293 292 291 291 291 291 290 289 288 288 288 288 287 287 288 288 288 288 289 290 290 290 288 289 288 289 288 289 290 288 287 289 291 290 289 288 286 286 286 287 289 289 289 289 288 288 287 287 286 286 284 284 284 284 284 285 285 284 283 284 283 283 283 283 282 282 282 282 283
296 296 296 295 295 295 293 293 294 293 294 293 292 292 292 292 291 291 290 290 290 291 291 290 290 290 290 291 290 289 289 288 288 288 288 288 289 290 288 289 290 290 289 288 289 289 290 290 289 290 289 290 291 289 286 285 286 288 287 289 289 288 289 288 288 287 287 287 284 285 285 283 283 284 284 282 282 283 283 283 283 284 285 283 283 284 284
295 294 293 294 293 292 292 292 292 292 292 293 292 291 291 291 291 290 290 289 289 290 291 291 291 291 291 290 290 289 289 289 290 289 289 289 289 289 288 289 290 290 290 289 290 289 288 288 289 290 289 289 291 289 287 286 285 285 287 286 288 288 288 287 287 287 286 284 286 286 285 284 283 283 282 282 283 283 283 284 284 284 284 283 283 283 283
293 292 292 292 292 292 292 291 291 292 292 293 294 293 292 291 291 290 290 290 290 291 292 292 292 291 290 290 291 291 290 289 290 291 290 290 289 288 289 289 290 291 292 291 290 289 288 289 289 288 289 289 290 288 286 286 285 286 286 286 286 286 286 287 287 287 285 285 286 285 285 283 284 284 284 284 284 283 283 283 284 284 284 285 285 282 282
292 292 292 292 292 292 291 292 292 292 292 293 293 293 292 292 291 290 291 291 291 292 293 293 291 292 291 291 291 290 289 289 290 290 291 291 289 288 288 289 291 291 290 289 289 288 288 289 288 287 286 286 286 287 286 286 286 286 286 285 285 285 287 287 287 286 285 285 286 285 284 283 284 284 283 283 283 283 284 285 284 284 283 283 283 283 283
291 291 291 291 291 292 292 292 292 292 292 292 293 294 293 292 291 291 291 291 291 291 291 291 290 290 291 291 290 290 289 289 290 289 288 288 289 291 291 290 291 291 287 288 289 288 289 289 288 286 286 286 286 286 286 286 286 286 287 286 285 284 285 287 287 287 285 286 286 285 286 286 285 284 284 284 283 284 284 284 284 283 283 283 284 284 283
290 291 291 292 292 292 293 292 292 292 292 292 294 294 294 293 292 291 290 289 289 289 290 290 291 291 290 290 290 290 289 290 290 289 289 288 289 290 291 290 292 290 286 287 288 288 287 287 287 287 287 287 286 285 285 286 286 286 287 287 287 285 284 286 285 285 286 287 286 286 286 285 285 284 284 283 283 283 283 284 283 283 283 284 284 284 284
291 290 291 292 291 292 292 292 292 292 293 293 294 294 293 292 291 291 290 289 289 289 289 290 290 290 290 291 291 291 291 291 291 290 288 286 286 287 289 289 291 289 287 286 286 287 287 288 289 287 287 287 285 285 285 286 286 286 287 288 287 285 284 284 285 287 286 286 286 285 285 286 285 284 284 285 285 285 285 284 284 284 284 285 285 284 284
290 291 291 289 290 290 290 292 293 293 293 292 292 292 292 292 291 290 290 289 288 288 288 289 289 290 290 290 290 290 290 290 290 291 292 290 290 289 289 288 288 287 287 286 286 287 288 287 287 287 287 287 285 285 285 286 286 285 287 287 286 285 285 285 285 285 286 287 286 286 285 285 285 285 285 286 286 286 285 285 285 284 285 284 285 286 284
291 291 291 291 291 290 290 290 291 290 290 290 289 289 290 290 290 289 288 288 288 288 288 288 289 290 291 291 290 289 288 288 289 289 289 289 288 287 287 288 287 287 286 286 285 286 286 288 287 287 287 287 286 285 285 286 286 285 286 286 285 284 284 285 285 286 285 286 286 286 286 286 287 286 285 285 285 285 285 285 284 286 284 284 284 284 284
291 291 291 291 291 290 290 289 289 288 288 289 289 289 288 289 288 287 286 287 287 287 287 287 289 290 290 291 291 291 291 290 288 289 288 287 288 287 286 287 288 287 287 286 286 285 286 287 287 287 286 286 286 286 285 285 286 286 286 286 285 285 285 285 286 284 284 284 285 285 285 285 284 284 285 285 285 284 284 284 285 286 284 283 284 285 286
292 292 292 291 291 289 289 289 288 287 288 288 288 288 288 288 287 286 286 287 287 287 287 287 288 288 289 289 289 289 289 290 291 291 291 289 289 287 288 287 287 286 287 286 287 285 286 286 287 287 286 286 286 286 285 286 286 287 286 285 285 285 284 284 285 285 285 287 286 286 286 286 286 286 286 285 285 285 285 285 285 285 285 285 285 285 285
292 292 291 290 290 289 289 288 288 288 287 287 288 288 288 287 284 285 285 286 287 287 286 286 287 287 287 287 287 288 288 288 289 289 288 289 290 289 287 287 287 287 287 287 287 286 285 286 286 286 287 286 286 286 286 286 286 286 286 287 285 284 286 286 285 285 285 286 285 285 285 285 285 285 285 284 284 284 284 285 284 285 285 285 285 286 286
290 291 291 290 290 290 290 290 289 288 287 287 287 287 287 286 286 285 286 287 286 286 286 286 285 286 286 287 287 287 288 289 289 288 287 288 289 287 287 287 287 287 288 288 287 287 286 285 284 285 286 286 286 286 287 287 286 287 287 287 286 285 285 285 285 285 286 286 285 285 285 285 284 285 285 284 285 284 285 285 284 284 284 285 286 286 286
290 291 291 291 290 290 290 290 289 289 288 287 286 286 286 286 285 285 285 286 287 286 287 286 285 286 286 287 288 288 288 288 287 287 288 287 288 287 287 286 287 287 287 287 288 287 286 285 285 285 285 286 286 286 286 286 286 286 285 285 286 285 285 285 285 286 286 286 284 284 285 285 285 285 285 285 285 285 285 284 284 284 283 285 285 285 285
Wind_Speed
6 7 7 7 9 6 4 6 6 5 2 5 4 4 4 6 6 8 13 16 17 17 18 18 18 19 19 17 15 13 13 11 11 12 11 10 9 8 8 8 6 4 5 5 5 5 4 4 5 8 9 8 6 5 5 4 4 3 3 4 6 8 8 9 8 8 8 8 8 9 9 9 10 10 9 9 9 9 10 10 9 10 10 10 11 11 11
5 5 8 8 10 4 7 8 6 3 4 2 3 3 3 5 3 11 20 14 11 15 14 15 12 10 12 12 12 12 13 13 13 12 12 10 8 8 9 7 4 3 3 4 5 6 4 6 9 11 9 8 6 6 5 4 4 3 3 5 8 8 9 9 8 9 9 9 9 9 10 10 10 10 10 10 10 10 11 11 10 10 11 10 11 11 11
4 6 4 9 8 8 5 4 8 9 4 5 4 2 3 9 8 11 16 11 8 3 8 9 10 11 12 12 13 14 13 13 13 12 10 9 9 8 7 5 4 3 4 6 6 5 8 11 11 10 8 7 7 6 4 4 4 3 4 7 8 9 9 8 8 8 8 7 7 9 8 9 9 10 10 9 9 10 10 10 11 11 11 13 12 11 12
2 5 4 4 6 7 8 6 9 10 10 7 5 3 2 5 10 13 12 10 5 8 12 10 10 13 15 16 14 13 11 12 13 12 10 9 8 8 7 5 3 3 5 7 7 9 11 12 11 11 9 7 7 6 4 4 4 4 6 8 9 9 9 9 9 9 8 9 9 9 9 10 9 8 8 9 9 9 10 12 11 10 13 12 11 11 11
1 5 1 6 6 6 5 4 3 3 3 1 1 3 5 3 19 14 10 11 12 17 17 16 13 13 13 14 13 13 12 11 12 13 12 11 10 6 5 5 5 5 4 5 6 9 11 11 11 9 9 8 7 5 5 4 5 7 8 9 10 10 10 10 9 9 9 9 9 10 10 9 8 8 9 10 10 10 11 9 8 13 11 12 12 11 12
2 4 2 3 3 1 3 2 0 2 1 2 7 3 3 3 2 4 3 11 13 16 17 19 19 18 15 13 10 14 17 14 12 11 12 11 8 8 8 6 6 6 6 7 6 7 11 11 11 8 8 9 7 4 5 5 7 8 9 9 9 10 9 9 8 8 8 9 9 9 8 9 9 9 10 11 9 8 7 8 10 11 12 13 12 12 11
1 2 3 4 3 5 1 3 4 2 1 3 13 6 8 7 1 7 11 12 19 19 17 18 16 13 12 11 13 8 9 12 13 14 12 10 10 10 8 7 7 6 6 7 10 14 13 12 10 10 8 8 7 5 5 7 8 9 9 10 10 9 9 9 8 8 8 8 9 8 8 8 9 10 9 8 9 8 8 9 10 11 11 12 11 11 11
2 3 3 3 2 2 2 2 1 1 0 3 4 5 6 7 2 11 10 13 12 14 15 15 14 14 11 8 4 9 10 12 14 14 11 11 11 9 7 9 7 7 8 10 13 12 11 11 9 10 9 6 7 7 6 8 9 10 10 10 10 9 10 9 8 8 8 9 8 8 8 8 9 10 9 9 9 7 8 8 8 8 9 10 11 12 11
4 2 3 1 1 0 1 1 1 2 2 3 3 5 3 3 3 7 15 12 13 13 14 15 14 13 12 9 4 5 10 9 10 11 11 11 10 9 7 9 8 7 8 11 11 11 11 11 11 9 8 8 9 9 9 8 9 9 10 11 10 10 9 8 8 8 8 9 9 8 8 9 9 9 8 8 8 6 8 8 8 10 9 9 9 10 12
4 6 3 2 2 1 5 7 3 2 1 2 2 5 0 1 4 5 14 17 16 16 15 15 15 15 14 10 6 3 8 11 13 12 12 12 10 9 7 8 9 8 9 10 10 13 12 10 9 9 8 9 9 9 8 7 9 9 9 9 8 7 6 5 5 5 5 5 6 6 6 8 7 7 7 6 7 6 8 8 10 8 7 9 10 10 12
4 3 4 3 4 4 3 2 2 1 1 1 1 5 0 2 8 9 10 14 17 20 21 18 17 14 13 11 8 7 11 13 14 13 11 12 10 9 10 11 10 9 9 10 11 12 12 11 8 8 10 11 11 9 8 8 9 10 9 8 7 7 6 5 5 5 5 5 5 5 5 5 5 5 6 6 5 6 7 7 8 7 8 9 10 10 11
1 4 3 1 2 1 1 2 1 1 1 1 2 3 7 5 8 12 14 15 15 14 15 17 16 16 15 13 10 9 12 14 14 14 13 12 10 10 9 8 8 8 8 11 11 12 12 11 9 10 10 11 10 10 9 9 10 10 8 7 6 6 6 6 6 7 6 6 6 6 7 7 7 6 4 5 6 7 6 7 7 7 8 9 10 9 9
3 6 0 2 4 4 2 2 0 2 2 4 4 8 6 9 11 13 16 15 14 15 16 14 11 1 1 10 14 12 13 13 11 10 10 11 11 10 9 8 8 9 8 10 11 11 10 10 9 9 11 12 11 9 9 9 10 7 6 6 7 7 7 7 7 7 6 6 8 7 6 7 7 7 7 7 7 7 7 7 8 9 9 8 9 9 9
5 3 6 4 3 5 4 2 1 2 2 2 5 4 2 13 12 11 15 16 13 14 11 6 5 9 15 12 11 13 14 15 13 13 12 11 9 7 7 9 10 10 9 10 10 9 7 9 9 9 10 11 9 7 7 8 6 6 8 8 8 8 8 8 7 7 7 7 7 7 7 8 9 9 7 7 7 6 7 7 9 9 8 8 8 8 9
3 2 3 1 2 2 4 2 3 0 3 5 4 2 5 8 14 15 11 13 10 10 9 10 13 16 15 14 13 12 13 14 13 12 12 12 11 11 10 9 8 11 11 11 10 9 8 8 8 8 11 10 9 8 10 8 8 9 8 8 8 9 9 9 8 8 8 8 8 7 7 7 9 9 7 8 8 7 8 8 9 9 8 8 8 8 8
5 3 4 4 3 3 2 4 4 4 4 3 5 9 8 5 12 14 12 8 10 11 14 15 15 16 15 11 13 13 13 13 12 11 11 11 10 10 8 9 9 12 11 10 10 8 8 8 7 8 11 11 9 10 9 7 9 9 9 8 9 9 9 9 9 9 9 9 8 7 7 7 8 9 8 7 8 7 7 7 8 9 8 7 8 9 9
2 3 2 1 2 2 1 2 1 0 0 3 4 2 12 13 8 9 12 12 11 14 16 16 16 14 13 14 13 15 13 13 13 13 13 13 13 12 12 10 10 10 12 12 11 9 8 8 7 8 9 12 11 10 7 8 9 10 9 8 9 10 10 9 9 9 9 9 8 8 7 7 8 8 8 7 9 7 7 7 7 8 7 7 8 7 8
2 2 0 0 3 4 5 5 2 4 5 4 6 9 9 3 6 8 13 13 14 15 17 17 12 14 13 14 12 12 13 13 12 12 12 12 12 12 11 10 10 10 10 11 11 10 8 7 8 7 8 10 12 9 8 9 9 9 9 9 9 9 9 8 9 9 10 9 9 8 8 8 8 7 7 7 8 7 7 7 7 8 7 7 7 7 7
2 2 1 3 3 2 6 8 7 8 6 4 4 7 6 8 9 10 9 13 15 15 15 17 16 14 15 14 13 12 11 12 13 13 13 13 13 14 13 11 11 11 10 11 10 10 8 5 7 6 7 7 9 9 10 8 8 8 8 9 8 8 8 7 7 8 9 8 7 8 7 7 7 7 7 6 7 7 6 7 7 7 7 7 7 7 8
2 3 3 3 3 3 3 5 9 8 7 8 6 6 7 9 9 10 11 13 14 13 13 15 18 15 12 15 13 12 11 11 12 12 13 13 12 11 11 10 10 9 10 10 10 9 9 7 7 7 7 7 7 8 7 7 7 8 8 8 8 7 7 7 7 7 8 10 10 8 7 7 7 7 7 6 7 7 6 6 7 7 6 6 7 7 7
3 6 4 6 7 8 6 6 5 6 8 9 7 8 10 11 12 11 9 9 11 11 13 12 15 16 11 11 13 13 10 9 10 11 12 12 12 11 10 10 10 11 9 10 9 9 8 7 7 7 7 7 8 8 7 7 8 9 8 7 8 8 7 7 7 6 7 6 7 7 7 6 6 5 5 6 7 6 3 1 2 4 5 5 3 2 3
8 6 9 11 9 4 1 3 6 7 6 10 9 8 10 10 12 11 12 10 11 13 13 14 13 15 12 8 9 11 10 10 10 12 12 12 12 10 8 9 9 10 9 10 9 8 6 6 7 7 7 6 6 7 8 8 9 9 8 8 8 8 7 7 7 6 6 6 6 6 6 6 7 6 6 6 6 6 5 6 8 6 5 4 1 2 6
7 3 8 1 7 8 5 8 5 6 7 10 10 10 11 10 11 11 13 13 13 12 10 11 15 14 15 12 11 12 10 9 8 9 12 13 11 11 10 11 10 10 8 8 8 7 6 6 7 7 6 6 6 5 7 8 9 9 8 8 7 7 7 7 7 7 6 6 5 5 6 6 6 7 6 6 7 7 7 7 7 8 8 7 8 7 5
4 6 7 9 8 8 6 5 7 6 5 9 9 8 9 10 11 12 13 13 14 12 12 9 10 15 14 13 14 14 12 11 12 10 8 10 12 12 11 11 11 10 10 10 10 9 7 8 8 7 7 6 6 5 7 8 8 9 8 8 7 7 7 6 7 6 6 6 5 6 4 4 6 6 6 7 6 8 9 8 7 8 8 9 9 11 12
7 7 8 8 11 9 8 7 5 5 5 9 10 9 10 10 10 11 13 12 13 16 13 13 9 10 15 15 15 14 13 10 10 10 10 9 11 12 11 10 11 11 11 10 9 9 9 9 8 8 7 5 5 6 7 8 9 9 9 8 8 6 7 6 6 6 6 6 6 6 6 4 4 4 6 6 7 5 6 8 9 9 10 11 10 12 13
12 10 11 10 10 9 8 8 6 7 7 9 9 9 9 10 12 11 12 13 11 11 15 15 13 9 11 13 11 11 11 11 11 10 10 10 10 10 10 10 10 10 9 9 9 10 9 9 9 8 7 5 7 7 8 9 9 9 8 8 8 7 7 7 7 6 6 6 6 6 5 4 5 4 4 4 5 5 6 7 7 9 10 12 12 12 12
11 12 14 12 9 6 7 8 7 7 8 9 10 10 10 11 12 11 9 10 11 11 11 12 12 12 10 10 10 9 11 12 11 10 10 10 10 9 8 8 11 11 10 9 8 9 10 9 8 8 6 5 5 7 8 9 9 9 8 8 7 8 11 8 7 7 6 6 6 6 6 6 5 4 4 3 3 6 7 7 7 6 4 6 9 9 7
6 4 7 12 10 8 5 7 11 10 9 10 11 11 11 11 12 12 13 12 11 10 10 10 12 12 12 10 10 9 10 11 11 10 10 10 7 8 10 11 11 10 10 9 8 8 9 8 8 8 6 4 5 7 8 8 9 8 8 7 7 7 6 6 6 6 7 7 7 7 7 6 6 5 3 3 4 5 4 5 6 6 6 4 2 5 10
4 6 6 7 9 9 10 9 10 10 10 9 9 10 11 13 11 12 11 11 12 12 11 9 7 8 10 10 10 10 10 11 11 11 10 8 8 9 10 11 11 10 10 10 9 8 8 8 8 8 6 4 6 7 8 9 8 7 7 7 7 6 6 5 5 6 6 6 6 7 7 7 7 6 5 4 4 4 4 6 5 4 4 4 5 6 7
7 7 9 9 11 12 13 11 11 10 10 10 10 9 9 12 11 9 10 11 11 11 10 10 10 9 8 8 9 11 11 12 12 9 8 8 9 9 10 10 11 10 10 9 9 8 9 8 8 8 5 5 7 7 8 8 7 6 6 5 6 6 5 4 4 5 5 5 4 5 7 8 7 7 6 5 5 5 5 5 4 5 5 4 4 4 4
8 8 10 10 11 11 12 11 10 11 11 10 10 11 9 8 11 11 10 10 9 10 9 10 10 10 9 9 7 6 7 7 8 9 9 9 8 9 10 11 11 9 9 9 8 8 9 8 8 7 5 6 8 8 8 8 7 6 6 5 5 7 9 8 6 6 5 5 4 5 5 7 7 6 6 6 5 4 4 3 4 3 3 3 3 3 2
10 9 10 9 10 11 11 10 10 10 10 10 11 12 12 12 13 12 10 9 9 10 10 10 11 11 10 9 8 7 7 7 8 9 9 8 7 7 8 10 11 10 9 8 7 7 8 8 8 6 5 6 7 8 9 8 7 8 7 7 7 6 7 9 6 6 6 6 6 6 4 7 7 7 6 6 6 6 4 4 4 3 3 3 2 1 1
10 9 7 9 10 10 11 10 11 10 10 10 9 8 7 7 8 8 7 8 9 9 9 10 9 9 9 8 9 9 9 9 9 10 10 9 7 7 7 8 9 9 8 7 7 7 7 8 8 5 5 6 7 7 8 9 7 8 7 7 6 7 7 7 7 6 6 6 5 6 6 5 6 7 7 7 6 5 4 4 3 2 2 2 1 0 0
10 7 7 9 11 13 13 11 10 9 7 7 6 7 7 7 7 7 7 7 8 9 10 9 9 8 7 8 10 10 11 11 9 9 9 9 8 7 7 9 8 8 7 6 6 7 6 6 6 6 6 6 7 7 7 8 8 8 6 6 7 6 6 5 6 6 6 5 7 6 6 5 7 8 7 7 7 7 6 4 4 3 2 2 2 2 2
6 6 4 4 5 8 11 10 9 9 9 9 7 6 7 7 8 8 8 9 9 8 8 8 7 6 7 8 11 11 11 10 9 10 10 9 8 8 7 8 7 7 6 5 7 7 7 6 5 5 5 5 5 5 6 7 6 7 5 6 6 6 5 4 6 7 7 6 5 7 7 5 5 5 5 6 6 6 6 5 4 4 3 3 4 3 4
8 7 5 4 5 5 7 9 10 10 10 9 9 9 9 9 9 9 10 9 7 7 8 7 6 6 7 9 10 10 10 9 8 7 7 8 8 7 9 9 9 9 7 5 4 6 6 7 9 10 6 5 4 4 4 5 4 5 5 6 6 5 5 5 5 5 5 5 5 5 7 7 6 4 4 4 4 4 5 5 6 6 5 5 4 3 4
7 8 5 5 5 6 6 6 7 8 7 7 9 9 10 9 9 8 7 7 8 8 6 6 7 8 7 7 8 7 8 8 8 8 8 7 6 8 9 9 9 9 7 8 4 4 7 8 11 13 9 6 6 4 4 8 7 6 7 7 7 6 5 4 4 4 4 3 4 4 2 3 3 3 3 3 4 4 3 4 3 2 2 3 2 3 3
5 7 7 6 6 6 5 4 5 7 8 7 5 5 8 9 10 9 8 7 7 7 6 7 7 7 6 6 8 8 7 6 7 8 8 7 7 10 8 9 8 8 8 7 5 4 6 9 12 9 7 7 6 5 5 8 8 7 8 8 8 7 6 7 5 4 4 4 3 3 3 4 4 4 4 3 4 4 3 3 1 1 2 2 2 2 2
5 4 5 6 6 6 5 4 4 5 7 8 7 6 5 6 5 7 8 7 7 8 9 8 8 8 8 8 8 7 7 7 7 9 8 7 8 11 8 9 8 8 7 4 5 5 7 7 5 6 6 6 5 4 5 7 7 6 7 9 8 7 7 6 7 7 6 6 5 5 4 4 4 4 4 3 4 3 2 1 1 2 5 4 4 3 2
6 6 6 7 7 6 6 5 5 5 6 7 7 6 6 8 7 8 8 7 6 9 11 10 11 9 8 9 9 8 6 7 8 10 9 7 7 9 6 4 6 5 6 9 6 6 7 8 6 5 5 4 4 5 4 6 5 4 5 7 8 8 7 6 6 6 6 5 7 6 5 5 5 4 4 4 4 4 1 0 1 2 5 4 4 4 4
7 7 6 7 7 7 7 7 6 6 7 7 8 6 6 9 9 9 8 8 5 8 11 11 11 9 9 9 10 8 6 5 6 9 8 8 8 8 8 7 5 4 7 7 6 6 6 5 5 5 4 4 4 5 5 6 4 3 3 5 8 7 7 7 7 7 7 7 5 6 5 4 3 3 4 4 4 4 5 5 4 5 6 6 5 4 3
8 9 8 8 8 7 7 7 8 7 6 6 8 8 8 9 10 10 8 8 7 8 10 9 12 12 9 8 9 8 6 5 5 7 7 10 9 8 8 7 5 6 9 10 8 8 5 5 5 5 5 4 4 7 7 5 3 2 3 4 6 7 8 8 8 7 5 5 6 4 3 5 5 5 4 4 4 4 6 6 5 5 5 5 4 4 4
10 11 9 8 8 8 8 8 8 7 6 6 7 7 7 7 9 9 8 7 8 7 8 7 8 10 10 9 9 9 7 5 5 5 4 3 5 9 10 7 5 6 9 8 7 7 7 6 5 4 5 6 5 6 8 5 3 2 2 2 2 2 4 8 8 6 6 6 5 6 6 5 6 6 6 6 5 5 5 5 5 5 4 5 6 6 6
8 8 8 8 8 7 7 8 8 7 7 5 6 7 7 6 7 9 9 7 7 8 9 8 8 8 8 9 9 8 7 7 6 6 6 4 2 1 1 4 7 7 9 7 7 7 7 6 5 6 7 7 8 7 4 5 3 2 0 1 1 1 2 5 6 5 7 7 7 7 7 7 7 6 6 5 5 5 6 6 6 6 5 6 6 6 6
8 7 7 7 7 7 7 8 9 9 7 5 7 8 8 7 6 7 9 9 8 7 8 9 9 9 8 8 9 9 8 7 7 6 7 5 4 4 3 5 5 7 8 8 7 7 7 6 7 8 7 7 7 7 4 4 4 3 2 0 0 1 2 4 6 7 7 6 7 7 7 8 7 7 7 7 6 7 8 7 7 6 7 7 7 6 6
7 7 6 7 7 6 6 6 6 5 5 5 5 5 6 8 8 7 8 9 9 8 8 9 9 9 9 8 6 6 6 6 6 6 7 8 9 6 5 8 7 7 9 9 7 7 7 9 10 9 9 8 7 6 4 4 4 4 3 1 1 2 3 5 6 5 7 7 8 7 8 7 7 7 7 7 7 8 8 7 7 7 6 7 8 8 7
6 6 6 6 6 6 6 5 5 5 6 6 7 5 5 7 8 8 7 8 9 8 7 7 8 9 8 9 9 8 7 6 4 5 4 3 1 2 6 10 10 10 9 7 7 8 8 8 9 10 10 10 8 6 6 5 5 4 4 4 3 3 3 4 4 4 6 7 7 6 5 5 7 7 7 7 7 7 7 6 6 7 6 5 5 5 4
7 7 7 6 6 6 5 5 5 6 7 8 8 8 7 6 7 6 6 6 6 6 7 6 7 6 7 7 7 8 9 9 8 8 6 6 5 3 4 6 8 11 12 9 9 8 11 13 12 11 11 10 8 7 7 7 6 6 5 5 4 3 3 4 4 5 5 5 6 6 6 5 5 5 7 7 8 7 6 7 8 7 6 6 7 7 6
7 8 7 6 6 6 6 6 6 6 7 6 7 8 8 8 7 6 6 6 7 7 7 7 7 7 7 7 8 7 6 7 10 11 9 7 6 6 6 8 10 11 9 8 8 7 10 14 14 13 12 9 7 7 6 7 7 7 8 7 6 5 4 4 6 5 5 7 7 8 8 8 8 7 7 7 7 7 7 7 7 7 7 7 7 7 7
8 7 6 6 7 7 7 7 7 8 7 7 8 8 8 7 7 7 7 7 8 8 7 7 7 7 7 7 7 7 7 7 8 6 4 7 8 7 6 7 8 11 11 9 7 8 7 10 10 10 9 7 7 7 7 7 7 7 7 7 6 5 6 6 5 5 4 5 5 6 7 8 8 8 7 7 7 7 7 7 6 7 9 7 7 7 7
8 8 8 8 8 8 9 10 9 8 8 8 8 8 8 8 8 7 7 7 7 7 8 7 6 7 7 7 7 7 8 8 9 8 6 6 7 7 8 8 9 10 10 9 8 8 7 7 7 7 7 7 7 7 6 7 7 7 7 7 6 7 6 6 5 6 6 6 7 7 7 7 6 6 6 7 6 5 5 5 6 6 6 7 7 8 8
10 10 9 8 8 8 9 9 8 9 9 8 8 8 8 8 7 7 7 8 9 8 8 8 7 7 7 7 8 8 7 8 8 8 7 6 6 6 8 10 9 9 9 8 8 7 7 6 6 7 8 8 8 8 7 8 7 7 7 5 6 6 6 7 7 7 7 7 6 6 6 6 7 7 7 7 7 8 7 7 7 7 7 7 7 7 7
Wind_Direction
126 118 92 88 79 83 101 74 59 40 2 107 127 219 221 149 184 191 177 169 152 170 174 169 166 164 161 156 150 141 137 131 126 125 124 126 127 128 129 128 130 128 134 136 138 146 147 136 100 85 95 92 84 74 66 58 57 62 76 77 73 68 66 63 56 53 51 50 47 46 45 41 38 30 25 28 30 28 26 25 21 14 11 12 13 14 13
51 60 93 82 95 119 61 41 24 359 38 38 161 190 180 200 223 155 162 175 165 165 162 158 152 138 132 133 132 135 137 135 130 130 130 134 133 135 137 141 142 144 138 132 146 157 143 94 100 106 100 95 88 83 70 56 59 47 77 75 74 71 68 65 59 57 58 56 55 52 47 43 40 38 35 36 36 36 34 31 26 22 19 21 23 20 17
19 358 30 77 84 93 91 36 21 16 5 84 54 105 57 79 48 128 137 125 104 45 113 117 124 125 126 131 142 144 140 136 136 134 137 138 137 143 142 143 153 154 143 129 139 122 102 111 110 107 105 99 94 84 74 67 60 52 74 77 75 74 72 66 65 61 58 52 49 51 48 46 44 41 38 37 37 37 35 32 28 25 25 29 25 20 22
333 330 13 92 79 74 87 49 27 11 16 35 348 29 297 111 131 130 122 117 125 134 127 120 132 140 145 148 149 144 144 142 137 137 138 139 143 150 149 151 145 127 129 132 122 117 115 113 112 111 109 105 96 90 80 73 65 64 70 74 74 72 67 64 64 62 61 60 57 57 56 51 47 42 39 40 41 38 38 35 31 31 34 29 27 22 23
292 284 318 82 60 43 5 343 310 313 316 217 224 5 28 139 139 132 147 197 168 151 145 140 150 152 150 149 152 141 140 143 143 141 141 143 151 142 109 91 83 86 91 101 112 115 112 115 112 113 113 106 96 98 90 76 75 69 70 70 71 69 67 69 68 65 65 65 62 60 59 57 52 49 45 44 41 38 39 33 35 41 33 32 28 24 26
232 300 340 46 55 240 233 262 166 184 219 167 81 30 329 51 58 186 229 161 138 138 143 150 159 160 161 152 156 158 153 149 144 140 142 146 124 101 98 99 93 86 82 79 72 86 105 109 106 107 105 103 104 101 95 83 78 75 74 73 75 73 69 65 63 61 62 63 62 61 61 60 58 53 50 46 42 39 39 37 41 43 39 38 33 29 28
148 329 47 68 213 236 247 286 267 236 188 103 102 68 46 7 5 114 110 133 154 159 153 147 142 137 138 150 145 143 135 132 139 145 146 128 117 119 113 102 90 90 96 94 93 101 106 109 110 106 100 101 104 90 79 84 79 81 77 76 73 71 70 66 63 61 63 64 63 60 60 62 61 58 55 52 47 40 40 40 41 40 36 38 34 30 28
71 52 55 158 243 245 313 340 357 48 44 262 72 54 6 15 7 127 123 138 134 132 129 128 133 135 126 108 107 133 139 143 141 146 144 129 124 118 119 108 98 91 86 94 104 110 114 110 108 108 109 111 99 86 79 81 84 81 82 79 76 73 70 66 64 62 65 66 66 64 64 64 64 61 56 51 48 39 47 46 46 46 43 43 37 33 28
135 156 99 177 341 351 14 48 228 179 182 217 177 157 288 333 40 129 131 129 127 125 127 128 129 125 114 102 75 136 140 138 133 129 117 119 120 119 111 104 98 93 92 96 104 109 111 114 115 114 116 108 97 94 90 85 84 82 79 78 76 74 73 68 66 63 66 72 71 68 66 68 66 62 60 53 49 38 52 48 47 43 43 42 38 36 35
116 120 65 20 33 229 262 229 270 212 252 221 209 106 30 301 85 119 139 142 139 134 132 132 132 127 119 135 161 184 135 125 117 111 114 114 114 115 115 96 88 83 88 95 103 111 111 109 114 118 115 104 99 94 91 90 88 86 81 79 79 76 72 65 60 58 58 63 68 63 62 66 67 65 64 59 56 42 54 50 48 42 40 46 42 39 38
61 63 120 185 156 240 206 255 255 246 248 317 30 70 173 250 142 132 139 145 148 148 146 144 142 141 152 164 162 179 140 128 123 121 120 119 123 119 111 106 100 93 95 106 112 109 109 108 110 111 107 103 100 97 95 94 92 89 86 85 81 79 72 67 61 58 56 56 59 59 58 54 56 64 60 62 55 50 53 56 56 51 47 50 48 41 38
125 134 93 196 196 188 252 240 294 287 351 50 64 131 238 212 150 143 146 152 153 150 150 149 156 158 154 167 170 166 141 132 130 128 127 119 111 104 104 97 105 106 107 104 103 106 109 114 119 111 106 101 100 102 101 100 95 92 90 87 81 73 68 61 60 55 52 59 56 58 61 58 54 53 51 55 50 55 52 54 59 54 53 52 54 46 37
135 103 322 355 314 280 244 218 238 240 200 74 136 198 228 172 156 157 151 154 155 152 152 161 158 209 51 135 139 145 129 115 111 112 116 118 118 118 111 110 106 96 94 103 110 113 115 118 115 111 108 105 105 106 106 98 92 89 85 77 73 72 71 67 62 59 54 57 61 57 58 66 64 58 51 57 54 55 56 53 59 54 51 51 52 48 40
157 184 124 204 235 236 189 253 192 237 95 164 215 237 188 145 149 152 148 147 153 153 148 109 92 113 113 121 127 133 131 127 130 126 123 113 97 88 100 110 106 104 102 102 101 97 104 111 112 112 111 108 109 108 98 91 93 92 89 87 84 81 76 72 67 61 59 54 56 59 54 57 61 58 51 55 55 56 58 59 59 55 49 48 50 47 41
78 60 82 73 204 248 150 171 56 71 129 232 211 109 88 136 138 139 141 143 131 123 113 113 117 120 126 135 136 132 127 123 126 127 123 119 116 115 111 104 109 111 106 103 103 108 107 106 109 110 108 105 105 103 97 103 104 98 95 90 87 85 81 77 72 67 61 58 55 55 56 56 64 62 52 54 50 48 54 56 56 54 45 42 46 44 41
150 141 160 201 220 199 182 135 173 218 201 175 160 141 111 137 146 143 140 125 132 131 126 130 129 129 128 129 132 128 125 123 123 123 119 114 110 108 108 114 116 108 107 106 103 100 101 101 101 108 110 109 109 106 107 112 103 100 95 92 91 87 83 79 75 69 66 61 57 53 54 59 63 64 56 57 57 50 52 56 57 55 40 38 44 43 38
131 190 213 261 261 232 274 149 182 191 273 135 136 113 145 146 161 146 136 138 137 135 131 129 132 130 136 138 140 133 135 131 131 131 129 126 127 127 125 124 118 112 115 113 109 101 99 100 101 106 111 114 114 112 122 113 109 107 105 100 95 90 86 83 78 77 69 65 61 56 51 55 62 57 54 53 61 42 54 55 56 58 45 42 47 44 40
190 48 59 31 46 64 65 45 51 108 98 70 104 124 115 67 122 143 140 138 136 136 135 131 135 135 140 136 136 133 134 132 131 126 122 121 124 123 121 119 115 117 113 110 109 107 101 105 107 108 110 117 119 127 122 114 115 114 112 106 98 94 91 85 83 81 77 67 60 56 55 55 61 57 62 56 64 50 53 55 51 54 47 46 43 41 44
87 91 327 61 101 69 86 90 63 57 55 78 99 86 87 112 109 106 122 131 136 138 141 136 135 138 141 135 135 133 132 132 134 132 130 131 133 132 127 129 123 117 116 113 113 113 111 111 109 109 107 109 123 125 122 121 117 114 109 107 103 98 94 88 83 82 83 77 67 53 48 53 56 57 57 61 66 59 54 56 54 53 48 48 45 40 40
101 162 154 115 79 69 56 81 102 89 77 72 62 94 105 104 104 113 125 126 128 137 136 139 134 136 140 137 136 133 134 135 135 133 133 132 128 126 126 126 120 116 114 117 118 117 119 122 116 113 110 115 118 117 117 115 113 110 109 110 108 103 98 98 92 91 88 83 80 68 52 48 50 50 50 60 67 63 59 53 67 56 56 52 50 44 39
80 80 95 110 79 54 48 64 62 97 114 104 96 102 109 112 113 119 119 125 128 126 127 128 128 126 132 134 133 128 127 124 127 130 131 128 127 126 124 124 123 125 124 121 121 121 125 124 116 109 112 115 114 115 119 122 121 115 116 111 108 106 104 99 91 88 90 89 90 88 80 64 53 52 53 45 67 73 65 103 99 105 85 65 59 63 56
159 173 173 151 133 160 115 92 119 113 110 110 112 109 107 117 120 124 121 116 118 124 130 133 130 127 122 119 125 123 124 124 123 126 125 125 124 121 122 118 119 118 121 124 124 121 120 112 105 102 101 100 106 114 117 122 123 123 124 117 112 111 112 109 109 102 95 93 94 93 93 88 76 53 37 62 56 75 66 51 66 62 80 81 31 24 55
190 187 156 133 99 105 145 146 140 125 127 119 122 129 128 126 124 124 121 121 118 118 118 129 130 129 130 129 121 112 108 105 104 113 124 125 123 122 123 118 117 117 117 115 111 108 111 106 102 103 101 101 97 96 101 109 117 123 124 119 117 120 119 123 125 120 115 107 102 95 96 94 88 86 60 30 42 60 71 66 66 68 70 73 62 52 64
53 122 129 131 127 140 144 139 131 126 124 117 117 120 122 126 125 125 124 126 123 115 110 103 123 130 127 124 116 113 108 103 101 97 103 124 124 124 121 122 121 117 117 115 115 117 113 107 106 104 104 102 104 99 97 99 103 108 114 120 128 135 131 131 128 124 125 126 119 106 92 91 100 101 93 79 37 13 22 33 38 51 56 54 54 54 49
145 135 120 112 109 108 115 120 111 105 118 118 121 122 123 119 116 121 122 124 129 129 125 123 127 129 127 128 133 134 127 119 118 128 138 129 124 123 123 120 119 121 122 120 120 117 112 112 109 108 105 107 106 101 99 101 102 103 107 111 115 120 127 134 134 137 136 138 138 132 130 118 108 106 104 102 90 61 4 3 21 34 40 40 43 48 50
117 115 110 102 102 112 112 99 89 107 110 109 108 111 109 111 115 117 121 125 123 128 130 134 132 134 131 133 132 129 123 129 138 138 130 128 127 126 124 123 124 122 122 122 122 120 117 116 114 111 109 115 114 112 107 104 103 106 108 111 119 122 127 132 135 145 151 155 153 152 151 144 145 124 119 115 109 98 76 46 24 20 20 26 30 34 36
106 115 108 94 100 116 134 136 140 131 111 109 111 112 111 111 109 107 108 112 121 124 127 128 131 135 133 132 130 130 130 133 135 136 134 135 133 127 124 123 125 124 121 117 112 112 111 111 108 106 107 109 110 112 110 109 106 106 105 106 104 113 118 121 124 132 140 143 146 147 152 163 159 144 134 107 98 94 100 96 82 64 42 19 23 42 52
98 98 125 142 156 150 130 119 121 119 117 117 119 117 114 110 111 114 115 115 116 118 122 133 137 140 139 141 134 125 125 136 139 140 138 134 126 124 122 124 122 118 112 108 110 110 107 107 107 106 109 119 114 110 109 107 106 108 111 111 111 109 104 104 108 114 120 127 133 132 136 140 140 134 140 132 100 99 94 92 92 85 63 33 23 17 42
62 80 60 92 116 121 118 117 116 118 121 122 120 120 124 122 122 123 125 127 128 128 130 134 133 136 139 142 137 136 137 139 141 143 136 127 126 125 125 120 114 111 110 111 112 111 110 109 109 110 123 134 118 114 113 110 109 113 110 110 108 106 105 108 113 112 117 121 123 123 122 123 120 120 121 117 108 99 92 97 99 98 96 68 49 35 26
100 92 97 106 112 117 121 124 127 126 126 132 132 132 131 130 127 126 128 130 134 134 138 136 137 140 139 139 143 144 145 146 141 131 126 128 130 130 120 114 107 104 108 113 121 120 117 118 118 122 143 139 120 115 111 108 111 111 112 115 120 125 125 126 112 110 102 94 87 90 98 108 121 130 135 133 124 112 108 106 110 103 87 82 93 100 87
97 107 115 120 120 121 120 123 126 129 129 131 133 130 127 125 126 130 135 135 134 135 144 145 146 145 145 144 144 137 127 123 124 127 129 134 136 129 125 123 122 130 133 137 137 129 126 128 129 139 159 135 122 121 118 116 116 111 109 108 113 124 126 119 114 113 112 101 88 87 80 85 102 118 129 124 110 102 107 114 109 108 128 120 108 114 135
105 115 122 124 125 126 122 123 128 129 132 131 134 139 144 144 145 144 145 146 148 147 146 148 154 155 151 144 143 136 125 124 126 127 133 133 132 128 126 127 128 132 136 139 136 131 131 131 138 160 158 135 129 128 124 124 123 123 130 135 131 135 129 126 116 118 113 115 114 105 112 103 100 111 115 129 141 152 160 135 144 161 148 119 117 117 183
123 126 131 135 132 133 130 134 133 134 137 143 143 137 133 135 135 137 138 140 139 146 151 153 153 151 146 139 136 139 137 134 131 135 138 139 131 125 124 126 130 134 139 144 141 139 138 144 156 158 152 143 135 134 132 135 137 137 144 137 139 141 137 131 130 122 115 114 114 126 121 116 126 114 131 146 159 163 171 180 188 201 212 192 201 252 250
150 157 159 157 151 149 142 144 140 140 141 136 131 129 130 136 137 134 138 144 147 150 155 156 152 144 138 137 139 139 137 133 137 145 147 139 135 132 132 130 134 135 137 134 131 141 150 154 150 156 157 146 142 141 143 143 144 145 143 139 139 135 127 127 122 115 116 119 122 118 119 130 130 139 148 156 160 165 177 192 198 200 210 265 273 269 295
109 108 121 128 136 142 139 143 150 146 145 144 140 139 140 140 139 141 143 147 155 159 155 150 144 136 133 133 135 141 142 146 150 148 146 141 138 135 127 118 114 113 117 129 141 154 160 156 154 148 141 144 152 156 156 155 151 146 156 151 145 145 149 143 133 138 143 158 134 119 119 125 154 166 163 151 155 161 176 191 187 186 198 238 262 289 293
122 123 129 129 128 135 140 150 153 158 157 153 151 151 152 153 147 145 149 153 155 155 156 148 136 129 131 132 134 141 143 145 145 141 140 143 141 132 123 124 127 126 129 133 141 137 141 147 152 145 141 138 136 146 154 153 147 146 148 143 140 157 165 169 163 152 150 147 149 146 144 148 155 175 186 176 168 172 175 175 176 195 195 212 219 247 266
138 138 133 128 126 129 129 137 145 142 138 142 149 151 155 156 152 148 145 149 158 159 145 135 134 137 146 140 134 132 137 145 145 147 148 144 137 125 124 127 130 135 138 138 182 153 136 141 145 137 136 137 139 148 159 140 136 134 130 144 158 164 166 167 174 159 174 177 166 169 134 120 152 184 183 178 202 204 188 197 231 220 222 228 212 202 236
141 136 135 132 128 119 113 111 122 123 121 118 126 143 158 157 152 150 149 145 139 134 132 136 138 134 125 116 120 129 137 140 137 137 137 142 138 124 129 132 143 140 141 167 185 159 143 146 141 131 135 139 147 153 162 139 135 132 134 153 167 165 168 177 178 181 176 195 211 195 164 175 183 205 217 201 238 209 215 232 230 245 260 246 198 188 205
121 103 111 116 112 108 102 86 98 114 132 133 130 131 137 140 130 123 126 132 135 134 131 134 130 128 137 127 122 127 134 140 138 134 138 147 141 133 151 157 162 161 165 168 145 166 148 145 133 134 141 153 155 158 153 127 110 108 131 152 163 173 178 176 176 184 187 192 184 204 194 194 198 193 190 215 243 269 258 252 257 142 105 121 123 135 160
137 132 132 126 120 120 115 115 113 111 111 122 125 129 138 130 128 124 127 128 144 141 138 142 143 145 141 134 134 136 145 141 142 137 139 138 133 132 135 162 174 178 151 148 159 166 157 145 130 140 153 174 161 161 164 119 110 104 114 141 165 177 187 174 177 185 194 182 190 187 175 177 202 192 178 192 187 190 186 93 245 133 124 128 148 175 183
133 132 130 123 123 125 128 126 121 117 118 116 109 114 127 126 126 124 134 136 150 146 143 149 144 141 143 146 143 142 140 148 144 136 135 124 127 139 147 176 211 188 156 160 165 163 161 153 131 149 177 180 186 164 141 130 125 117 136 136 150 167 176 176 191 193 186 183 178 184 183 152 171 163 147 148 167 157 153 163 150 144 156 167 193 199 201
140 132 128 125 129 132 131 126 120 111 106 107 112 120 129 131 130 133 136 132 134 142 143 152 150 149 149 144 137 132 133 144 136 133 139 142 148 149 153 189 197 188 177 166 164 159 170 161 143 156 172 189 199 186 153 144 150 144 117 113 132 158 173 186 194 199 183 176 183 169 149 155 162 175 190 164 146 156 153 149 150 159 169 175 173 186 186
143 141 142 141 140 139 135 134 132 130 124 120 123 125 132 124 120 121 125 128 132 133 134 131 129 130 138 138 137 138 150 153 139 127 101 103 160 157 160 193 193 197 179 163 163 166 174 172 169 174 178 171 197 186 154 144 143 134 84 69 87 134 189 175 194 190 173 179 183 178 181 172 182 181 181 186 176 177 169 165 165 175 177 172 172 178 191
144 143 142 140 141 138 135 136 136 141 146 149 136 127 125 124 131 133 135 137 138 140 138 140 144 145 150 149 143 147 157 162 158 150 132 105 74 277 189 171 178 180 184 165 164 168 178 182 187 191 190 191 177 179 172 151 149 124 109 96 64 78 228 183 152 170 168 179 172 178 181 187 192 191 184 166 163 181 189 189 192 182 176 171 172 183 191
152 152 146 143 144 140 143 152 159 163 157 141 132 134 143 142 148 148 144 144 151 158 153 153 156 159 162 164 163 166 166 169 163 150 138 149 159 241 222 167 178 167 186 172 167 170 175 185 202 213 205 194 178 174 180 165 159 159 170 158 122 176 232 213 173 181 176 179 177 182 185 188 189 187 187 185 180 180 190 192 200 192 167 177 183 191 205
157 152 146 138 144 154 154 151 156 142 125 123 124 131 150 153 157 159 158 157 161 171 174 165 162 168 168 169 165 158 157 162 167 176 177 169 178 205 183 165 178 186 185 180 167 175 183 194 197 206 223 221 169 173 183 187 180 189 193 185 217 204 206 243 205 185 183 185 191 193 191 187 179 186 185 180 187 189 197 200 202 206 191 186 195 196 201
152 153 156 157 163 162 156 155 144 131 126 130 143 165 185 169 163 168 176 173 167 166 167 170 170 172 172 167 160 156 158 170 200 217 204 210 155 102 174 176 175 181 174 182 184 184 184 194 200 206 210 217 183 177 184 182 185 187 191 219 221 221 204 223 253 233 201 199 204 207 204 197 189 190 194 194 193 197 197 198 209 221 218 209 208 205 212
153 163 175 175 170 166 155 143 137 151 158 168 169 169 180 176 171 169 165 163 161 158 162 168 169 170 171 174 175 174 171 167 179 227 214 200 198 165 159 179 188 188 186 186 188 198 192 190 197 201 206 198 186 191 187 190 190 192 196 203 211 220 226 219 218 231 232 221 210 204 205 219 232 221 202 199 208 206 199 198 206 218 219 205 205 203 200
168 175 180 173 160 156 163 166 161 166 182 177 162 169 173 171 165 158 163 164 159 160 169 172 172 175 178 181 178 183 188 187 180 195 204 192 186 188 198 196 195 185 181 183 194 204 201 198 196 202 201 188 193 197 196 196 197 197 201 202 203 203 205 212 233 231 217 211 207 204 205 202 201 201 210 213 215 211 201 207 212 214 216 213 210 202 202
181 175 172 172 167 171 178 170 174 184 179 168 171 168 166 152 149 176 173 166 168 165 169 175 179 179 180 182 187 185 181 190 212 220 189 190 199 199 183 178 183 190 190 190 197 202 208 209 211 204 194 195 203 205 205 197 200 204 210 208 206 197 203 218 218 203 210 214 209 205 201 198 197 201 201 201 208 209 206 207 210 217 215 210 202 202 206
178 182 185 183 179 180 176 177 178 170 167 172 164 159 157 162 169 172 174 170 161 161 177 183 188 187 184 188 191 190 192 198 206 206 194 202 201 192 181 181 185 189 195 196 195 199 191 190 196 198 201 203 208 214 215 215 212 213 212 215 212 203 203 209 208 212 216 213 210 207 205 203 201 203 206 209 212 219 221 220 223 217 201 205 208 210 215
177 185 181 174 170 176 183 173 159 164 163 160 154 155 166 167 155 170 183 179 168 171 175 169 195 214 196 191 190 199 199 198 203 207 203 194 191 197 193 185 182 189 190 196 207 204 197 196 192 195 196 200 204 209 219 224 225 228 229 226 224 220 210 207 202 205 212 211 210 222 225 221 209 204 208 206 203 204 210 214 217 215 209 211 214 216 220